Regional Weather Roundup
Issued by NWS Charleston, SC

Home | Current Version | Previous Version | Text Only | Print | Product List | Glossary On
Versions: 1 2 3 4 5 6 7 8 9 10 11 12 13 14 15 16 17 18 19 20 21 22 23 24 25 26 27 28 29 30 31 32 33 34 35 36 37 38 39 40 41 42 43 44 45 46 47 48 49 50
000
ASUS42 KCHS 070026
RWRCHS

REGIONAL WEATHER ROUNDUP
NATIONAL WEATHER SERVICE CHARLESTON SC
700 PM EST FRI MAR 06 2015

NOTE: "FAIR" INDICATES FEW OR NO CLOUDS BELOW 12,000 FEET WITH NO
SIGNIFICANT WEATHER AND/OR OBSTRUCTIONS TO VISIBILITY.

NOT ALL STATIONS ARE QUALITY CONTROLLED BY THE NATIONAL
WEATHER SERVICE. USE DATA WITH CAUTION...ESPECIALLY
DEWPOINT OBSERVATIONS.

SCZ027-030-031-034>040-042>050-070100-
...SOUTHEAST SOUTH CAROLINA...

CITY           SKY/WX    TMP DP  RH WIND       PRES   REMARKS
N CHARLESTON   MOCLDY    45  31  58 N7        30.40R
6HR MIN TEMP:  43; 6HR MAX TEMP:  47;

WATERFRONT PRK   N/A     45 N/A N/A N8          N/A
MOUNT PLEASANT CLOUDY    45  32  61 CALM      30.40S
PINOPOLIS        N/A     46  32  57 N7        30.31S
MONCKS CORNER  FAIR      45  32  61 CALM      30.41R HAZE
SUMMERVILLE    FAIR      43  34  70 CALM      30.41S
BEAUFORT MCAS  CLOUDY    46  36  68 N7        30.40R
6HR MIN TEMP:  44; 6HR MAX TEMP:  48;

BEAUFORT ARPT  FAIR      45  39  81 CALM      30.40R
HILTON HEAD IS CLOUDY    43  39  87 CALM      30.41R
WALTERBORO     CLOUDY    45  36  70 CALM      30.41S
ALLENDALE      FAIR      45  36  70 CALM      30.39S

...SOUTHERN MIDLANDS AND PEE DEE...

CITY           SKY/WX    TMP DP  RH WIND       PRES   REMARKS
GEORGETOWN     NOT AVBL
KINGSTREE      NOT AVBL
ORANGEBURG     PTCLDY    45  28  51 CALM      30.40R
6HR MIN TEMP:  44; 6HR MAX TEMP:  49;

BARNWELL       FAIR      43  37  81 CALM      30.39F
AIKEN          FAIR      41  28  60 NE3       30.41S
MANNING        FAIR      39  30  70 CALM      30.41R
COLUMBIA       PTCLDY    44  27  51 W5        30.39S
6HR MIN TEMP:  43; 6HR MAX TEMP:  50;

SUMTER         CLEAR     43  27  53 N7        30.38R
6HR MIN TEMP:  43; 6HR MAX TEMP:  49;

FLORENCE       CLEAR     41  24  51 E5        30.41R
6HR MIN TEMP:  40; 6HR MAX TEMP:  47;

MYRTLE BEACH   CLOUDY    45  23  42 N8        30.43R
N MYRTLE BEACH CLOUDY    43  23  45 N6        30.41R
6HR MIN TEMP:  40; 6HR MAX TEMP:  46;


$$

GAZ063-065-086>088-099>101-113>116-118-119-134>141-150-070100-
...SOUTHEAST GEORGIA...

CITY           SKY/WX    TMP DP  RH WIND       PRES   REMARKS
SAVANNAH ARPT  MOCLDY    45  36  70 CALM      30.40S
6HR MIN TEMP:  44; 6HR MAX TEMP:  48;

HUNTER AAF     MOCLDY    45  38  75 N3        30.38R
6HR MIN TEMP:  44; 6HR MAX TEMP:  47;

FORT STEWART   MOCLDY    45  38  77 CALM      30.38S
6HR MIN TEMP:  45; 6HR MAX TEMP:  47;

STATESBORO     CLOUDY    44  40  87 CALM      30.39S
SYLVANIA       CLOUDY    44  41  91 CALM      30.39F
CLAXTON        FAIR      45  41  87 CALM      30.39S

...CSRA...CENTRAL AND FAR SOUTHEAST GEORGIA...

CITY           SKY/WX    TMP DP  RH WIND       PRES   REMARKS
THOMSON        CLEAR     43  37  77 CALM      30.43S
AUGUSTA-BUSH   CLEAR     45  29  53 N7        30.39R
6HR MIN TEMP:  45; 6HR MAX TEMP:  52;

AUGUSTA-DANIEL CLEAR     48  27  44 NW6       30.39R
SWAINSBORO     FAIR      46  36  66 CALM      30.38F
VIDALIA        CLOUDY    45  41  87 CALM      30.38F
EASTMAN        FAIR      45  41  88 CALM      30.41S
HAZLEHURST     FAIR      46  42  86 CALM      30.37F
ALMA           MOCLDY    46  38  73 CALM      30.38S
6HR MIN TEMP:  44; 6HR MAX TEMP:  47;

WAYCROSS       CLOUDY    49  43  80 NE5       30.38F
JESUP          CLOUDY    48  43  81 CALM      30.39S
BAXLEY         FAIR      46  41  81 CALM      30.38S
BRUNSWICK      CLOUDY    46  37  71 N6        30.40S
SAINT SIMONS   CLOUDY    45  38  76 N8        30.39R
6HR MIN TEMP:  45; 6HR MAX TEMP:  46;


$$

SCZ027-028-034-036>038-045-046-048>050-GAZ119-141-070100-
...LAKE AND SUPPLEMENTAL COASTAL OBSERVATIONS...

STATION/POSITION TIME  TEMP    WIND        PRES    WAVE   SWELL
                       AIR SEA DIR/SP/G            HT/PER HT/PER/DIR
                 (UTC) (F)     (DEG/KT/KT) (MB)    (FT/S) (FT/S/D)
UPR LAKE MARION  NOT AVBL
WINYAH BAY       2245   44     360/  5     1028.0
LAKE MURRAY      0000   43      CALM  /  1 1028.4F
ACE BASIN NERRS  NOT AVBL
FORT PULASKI     0000   45 53  360/  5/  6 1029.8S
SAPELO ISLAND    2300   46     360/ 11     1029.0R

$$

ANZ835-935-AMZ111-154-330-350-352-354-370-450-454-472-070100-
...C-MAN AND BUOY OBSERVATIONS...

STATION/POSITION TIME  TEMP    WIND        PRES    WAVE   SWELL
                       AIR SEA DIR/SP/G            HT/PER HT/PER/DIR
                 (UTC) (F)     (DEG/KT/KT) (MB)    (FT/S) (FT/S/D)
BUOY 41004       2350   45 66   10/ 17/ 21 1028.5R   8/ 8
BUOY 41008       2350   46 55   20/ 16/ 19 1028.6R   6/ 8   3/ 80/ 8
FOLLY BEACH CMAN 0000   45     360/  7/  8 1029.7R
CAPERS NEARSHORE 2300   44     360/ 10/ 12   N/A
FRIPP NEARSHORE  2300   44      50/  8/ 10 1028.4R


STATION/POSITION TIME  TEMP    WIND        PRES    WAVE   SWELL
                       AIR SEA DIR/SP/G            HT/PER HT/PER/DIR
                 (UTC) (F)     (DEG/KT/KT) (MB)    (FT/S) (FT/S/D)
5E ST. MARYS GA  2321      54                N/A     7/ 6   2/ 90/11
FRYING PAN BUOY  2350   43 58   10/ 16/ 19 1029.2R   6/ 7   3/130/11
BUOY 41025       NOT AVBL
CAPE LOOKOUT NC  0000          360/ 16/ 19 1029.4R
BUOY 41002       2350   64 72   30/ 16/ 19 1022.3R   9/ 9   7/ 10/ 9
BUOY 41010       2320   74 75  240/  4/  4 1021.3R
ST AUGUSTINE FL  0000   47     360/ 30/ 33 1027.7R


$$



USA.gov is the U.S. government's official web portal to all federal, state and local government web resources and services.